Regional Weather Roundup
Issued by NWS

Home | Current Version | Previous Version | Text Only | Print | Product List | Glossary On
Versions: 1 2 3 4 5 6 7 8 9 10 11 12 13 14 15 16 17 18 19 20 21 22 23 24 25 26 27
000
ASUS44 KBMX 211610
RWRAL

ALABAMA REGIONAL WEATHER ROUNDUP
NATIONAL WEATHER SERVICE BIRMINGHAM AL
1100 AM CDT MON AUG 21 2017

NOTE: "FAIR" INDICATES FEW OR NO CLOUDS BELOW 12,000 FEET
WITH NO SIGNIFICANT WEATHER AND/OR OBSTRUCTIONS TO VISIBILITY.

THE REMARK "TC" DENOTES TEMPERATURE IN DEGREES CELSIUS.

ALZ001>011-014-016>018-020-211700-
NORTH ALABAMA

CITY           SKY/WX    TMP DP  RH WIND       PRES   REMARKS
MUSCLE SHOALS  SUNNY     89  74  60 CALM      30.19F HX  98
HUNTSVILLE     MOSUNNY   91  75  59 NW3       30.19S HX 101
DECATUR        SUNNY     89  74  60 CALM      30.19F HX  98
HALEYVILLE     FAIR      88  75  65 N3        30.22S HX  97
GADSDEN        SUNNY     89  74  60 VRB3      30.20S HX  98
$$

ALZ012-013-022-023-030>036-040>044-211700-
WEST CENTRAL ALABAMA

CITY           SKY/WX    TMP DP  RH WIND       PRES   REMARKS
TUSCALOOSA     SUNNY     91  75  59 VRB3      30.16S HX 101
DEMOPOLIS        N/A     90  73  58 E3        30.15S HX  97
$$

ALZ015-024>026-033>036-041>044-211700-
CENTRAL ALABAMA

CITY           SKY/WX    TMP DP  RH WIND       PRES   REMARKS
BIRMINGHAM     MOSUNNY   89  70  53 CALM      30.21S HX  94
MONTGOMERY     SUNNY     93  71  48 VRB3      30.15S HX 100
SHELBY CO ARPT SUNNY     91  73  55 CALM      30.18S HX  99
MAXWELL AFB    SUNNY     91  73  55 NE6       30.15S HX  99
GREENVILLE     FAIR      92  70  48 NE7       30.15S HX  97
SELMA          FAIR      91  73  55 E6        30.15S HX 100
PRATTVILLE     FAIR      89  74  59 CALM      30.16R HX  98
BESSEMER       FAIR      89  73  59 CALM      30.19F HX  97
TALLADEGA      FAIR     N/A N/A N/A MISG      30.19S
PELL CITY      SUNNY     88  77  70 CALM      30.19S HX 100
MARION         FAIR      90  75  60 NE5       30.15S HX 100
SYLACAUGA      FAIR      91  75  59 CALM      30.18F HX 101
$$

ALZ019-021-028-029-037-038-045>048-211700-
EAST CENTRAL ALABAMA

CITY           SKY/WX    TMP DP  RH WIND       PRES   REMARKS
ANNISTON       SUNNY     89  71  55 NE5       30.19S HX  95
ALEXANDER CITY SUNNY     89  72  57 E3        30.19S HX  96
AUBURN         SUNNY     89  73  59 NE7       30.20R HX  97
$$

ALZ051>064-211700-
SOUTHWEST ALABAMA

CITY           SKY/WX    TMP DP  RH WIND       PRES   REMARKS
MOBILE         PTSUNNY   90  74  59 E6        30.14S HX  99
BROOKLEY FIELD SUNNY     89  79  72 E7        30.15R HX 104
EVERGREEN      SUNNY     90  75  61 CALM      30.15S HX 100
$$

ALZ049-050-065>069-211700-
SOUTHEAST ALABAMA

CITY           SKY/WX    TMP DP  RH WIND       PRES   REMARKS
DOTHAN         CLOUDY    86  78  77 E3        30.19R HX  98
OZARK          CLOUDY    85  78  77 SE5       30.15R HX  96
TROY           SUNNY     90  73  57 E3        30.16S HX  98
EUFAULA        FAIR      91  75  59 E5        30.15S HX 101
$$




USA.gov is the U.S. government's official web portal to all federal, state and local government web resources and services.